• Processing (Info)

  • MPEC 2020-K220 : 2020 KP6

    The following Minor Planet Electronic Circular may be linked-to from your own Web pages, but must not otherwise be redistributed electronically.

    A form allowing access to any MPEC is at the bottom of this page.


    Read MPEC 2020-K219 Read MPEC 2020-K221


    M.P.E.C. 2020-K220                                 Issued 2020 May 30, 11:46 UT
    
         The Minor Planet Electronic Circulars contain information on unusual
             minor planets and routine data on comets.  They are published
        on behalf of Division F of the International Astronomical Union by the
              Minor Planet Center, Smithsonian Astrophysical Observatory,
                              Cambridge, MA 02138, U.S.A.
    
                 Prepared using the Tamkin Foundation Computer Network
    
                                  MPC@CFA.HARVARD.EDU
                URL https://www.minorplanetcenter.net/    ISSN 1523-6714
    
                                    2020 KP6                                 
    
    
    Observations:
         K20K06P  C2020 05 17.48410515 27 18.359+10 58 55.51         22.7 GVEK220F51
         K20K06P  C2020 05 17.49656415 27 17.703+10 59 01.38         22.4 GVEK220F51
         K20K06P  C2020 05 17.50926315 27 17.032+10 59 07.37         22.7 GVEK220F51
         K20K06P  C2020 05 17.52172615 27 16.387+10 59 13.35         23.1 GVEK220F51
         K20K06P  C2020 05 20.46700915 25 22.539+11 22 00.37         22.3 GVEK220F51
         K20K06P  C2020 05 20.46765215 25 22.497+11 22 00.60         22.5 GVEK220F51
         K20K06P  C2020 05 20.47843315 25 21.827+11 22 04.98         23.0 GVEK220F51
         K20K06P  C2020 05 20.48983515 25 21.128+11 22 09.56         21.4 GVEK220F51
         K20K06P  C2020 05 20.49048015 25 21.093+11 22 09.81         22.4 GVEK220F51
         K20K06P  C2020 05 20.50124115 25 20.455+11 22 14.25         21.9 GVEK220F51
         K20K06P  C2020 05 20.50188215 25 20.402+11 22 14.41         22.7 GVEK220F51
         K20K06P  C2020 05 29.47174215 16 43.743+12 00 33.46         21.4 GVEK220F51
         K20K06P* C2020 05 29.49662515 16 41.175+12 00 33.09         21.65wUEK220F51
         K20K06P  C2020 05 29.50907415 16 39.918+12 00 32.75         21.73wUEK220F51
         K20K06P pC2020 05 29.90690515 16 12.11 +12 00 15.1          21.5 GVEK220L01
         K20K06P pC2020 05 29.91162815 16 11.65 +12 00 15.3          21.4 GVEK220L01
         K20K06P pC2020 05 29.91635215 16 11.16 +12 00 16.1          21.7 GVEK220L01
         K20K06P KC2020 05 30.15535315 15 52.93 +12 00 22.0          21.6 VuEK220H21
         K20K06P KC2020 05 30.16143715 15 52.28 +12 00 22.1          21.4 VuEK220H21
         K20K06P KC2020 05 30.16751915 15 51.64 +12 00 22.1          21.4 VuEK220H21
         K20K06P KC2020 05 30.32176 15 15 35.62 +12 00 18.1          21.5 GVEK220734
         K20K06P KC2020 05 30.34493 15 15 33.02 +12 00 16.1          21.1 GVEK220734
         K20K06P KC2020 05 30.35653 15 15 31.90 +12 00 15.7          21.5 GVEK220734
    
    Observer details:
    734 Farpoint Observatory, Eskridge.  Observers G. Hug, D. Cromer, D. Goodin.
        Measurer D. Cromer.  0.7-m reflector + CCD.
    F51 Pan-STARRS 1, Haleakala.  Observers J. Bulger, K. Chambers, T. Lowe, A.
        Schultz, M. Willman.  Measurers S. Chastel, M. Huber, Y. Ramanjooloo, R.
        Wainscoat, R. Weryk, K. Chambers, T. de Boer, L. Denneau, J. Fairlamb, H.
        Flewelling, C.-C. Lin, E. Magnier.  1.8-m Ritchey-Chretien + CCD.
    H21 Astronomical Research Observatory, Westfield.  Observer R. Holmes.
        Measurers S. Foglia, L. Buzzi, T. Linder, R. Holmes.  1.3-m f/4.0
        astrograph + CCD.
    L01 Visnjan Observatory, Tican.  Observer K. Korlevic.  1.0-m f/2.9 reflector
        + CCD.
    
    Orbital elements:
    2020 KP6                                                 Earth MOID = 0.0023 AU
    Epoch 2020 May 31.0 TT = JDT 2459000.5                  Veres
    M 345.02783              (2000.0)            P               Q
    n   0.34727319     Peri.  214.93366     +0.46790781     +0.86864926
    a   2.0045730      Node    83.46475     -0.76893571     +0.49095571
    e   0.5229259      Incl.    9.43253     -0.43566059     +0.06641500
    P   2.84           H   24.9           G   0.15           U   6
    Residuals in seconds of arc
    200517 F51  0.2+  0.1+    200520 F51  0.0   0.1-    200529 L01  0.1-  0.9+
    200517 F51  0.1+  0.0     200520 F51  0.3+  0.1+    200530 H21  0.4+  0.2-
    200517 F51  0.2-  0.0     200520 F51  0.1+  0.0     200530 H21  0.5+  0.2-
    200517 F51  0.3-  0.0     200529 F51  0.2-  0.0     200530 H21  0.8+  0.2-
    200520 F51  0.1+  0.1-    200529 F51  0.2-  0.1+    200530 734  2.3+  0.3-
    200520 F51  0.0   0.1-    200529 F51  0.2-  0.1+    200530 734  0.7-  0.5-
    200520 F51  0.0   0.1-    200529 L01  0.6-  0.0     200530 734  0.1+  0.0
    200520 F51  0.0   0.1-    200529 L01  0.1-  0.1+
    
    Ephemeris:
    2020 KP6                 a,e,i = 2.00, 0.52, 9                   q = 0.9563
    Date    TT    R. A. (2000) Decl.     Delta      r    Elong.  Phase     V
    2020 04 30    15 32 25.6 +07 56 20   0.3239  1.3032   152.5    20.9    24.1
    ...
    2020 05 15    15 28 40.0 +10 37 13   0.2091  1.1974   150.5    24.5    23.0
    ...
    2020 05 23    15 23 27.0 +11 38 27   0.1546  1.1447   146.6    29.2    22.4
    ...
    2020 05 29    15 17 22.3 +12 00 21   0.1157  1.1077   142.6    33.8    21.8
    2020 05 30    15 16 04.6 +12 01 00   0.1093  1.1018   141.9    34.6    21.7
    2020 05 31    15 14 40.2 +12 00 31   0.1030  1.0960   141.1    35.5    21.6
    ...
    2020 06 06    15 02 01.7 +11 22 33   0.06555 1.0628   135.8    41.7    20.7
    ...
    2020 06 14    13 34 53.7 +02 17 39   0.01776 1.0240   117.4    61.7    18.4
    ...
    2020 06 29    03 58 50.9 -16 10 24   0.07849 0.9731    54.4   121.8    24.3
    
    M. P. C. Staff               (C) Copyright 2020 MPC           M.P.E.C. 2020-K220
    


    Read MPEC 2020-K219 Read MPEC 2020-K221


    MPEC number:

    Enter an MPEC number in one of the following forms:

    • 1997-B01 (the full form)
    • J97B01 (the packed version of the full form)
    • B01 (the abbreviated form)